www.pogodaiklimat.ru

Погода и климат >> Архив погоды >> Россия >> Ленинградская область >> Сланцы


ПОГОДА в Сланцах

  • Прогноз погоды в Сланцах
  • Монитор погоды в Сланцах

АРХИВ ПОГОДЫ в Сланцах

Время (UTC), дата Ветер
(напр.,м/с)
 
Видим.   Явления Облачность Т
(С)
Тd
(С)
f
(%)
Тe
(С)
Тes
(С)
Комфортность P
(гПа)
Po
(гПа)
Тmin
(С)
Tmax
(С)
R
(мм)
R24
(мм)
S
(см)
12 12.08 Ю 2 н/о н/о +22.6 +14.7 61 +26 +26 жарко 1013.3 1008.6
15 12.08 штиль 0 н/о н/о +21.5 +13.6 61 +24 +24 комфорт 1012.2 1007.5
12 15.08 ЮЗ 4 н/о н/о +18.2 +11.0 63 +18 +18 1009.5 1004.8
15 15.08 ЮЗ 2 н/о н/о +14.8 +12.6 87 +14 +14 1010.9 1006.1
18 15.08 ЮЗ 1 н/о н/о +13.9 +12.1 89 +14 +14 1012.0 1007.2
21 15.08 ЮЗ 1 н/о н/о +12.0 +10.6 91 +12 +12 1013.4 1008.6
00 16.08 штиль 0 н/о н/о +9.4 +8.7 95 +9 +9 1014.5 1009.6
03 16.08 штиль 0 н/о н/о +7.9 +7.4 97 +7 +7 1015.2 1010.3 +7.9
06 16.08 ЮЗ 1 н/о н/о +14.9 +12.3 84 +15 +15 1015.9 1011.1 +7.9
09 16.08 ЮЗ 1 н/о н/о +19.2 +10.7 58 +21 +21 комфорт 1015.8 1011.1
12 16.08 ЮЗ 2 н/о н/о +21.4 +8.0 42 +22 +22 комфорт 1015.9 1011.2
15 16.08 ЮЗ 1 н/о н/о +21.3 +8.7 44 +22 +22 комфорт 1015.8 1011.1
18 16.08 штиль 0 н/о н/о +15.7 +12.0 79 +16 +16 1016.3 1011.5 +22.2
21 16.08 Ю 1 н/о н/о +12.0 +10.6 91 +12 +12 1016.6 1011.8
00 17.08 штиль 0 н/о н/о +10.5 +9.2 92 +10 +10 1017.4 1012.5
03 17.08 ЮВ 1 н/о н/о +9.7 +8.1 90 +9 +9 1017.2 1012.3 +9.5
06 17.08 ЮВ 2 н/о н/о +17.0 +10.1 64 +17 +17 1017.5 1012.7 +9.5
09 17.08 Ю 2 н/о н/о +22.4 +9.2 43 +24 +24 комфорт 1017.1 1012.5
12 17.08 ЮВ 2 н/о н/о +23.8 +7.4 35 +24 +24 комфорт 1016.4 1011.7
15 17.08 ЮВ 2 н/о н/о +22.6 +9.0 42 +24 +24 комфорт 1015.6 1010.9
18 17.08 ЮВ 1 н/о н/о +18.7 +11.2 62 +20 +20 1015.6 1010.9 +25.1
21 17.08 штиль 0 н/о н/о +14.1 +10.4 78 +14 +14 1015.7 1010.9
00 18.08 штиль 0 н/о н/о +11.0 +9.2 89 +10 +10 1015.6 1010.7
03 18.08 штиль 0 н/о н/о +9.2 +8.0 92 +8 +8 1014.9 1010.0 +9.1
06 18.08 ЮВ 1 н/о н/о +17.2 +10.7 66 +18 +18 1014.2 1009.5 +9.1
09 18.08 ЮВ 2 н/о н/о +22.6 +7.3 37 +23 +23 комфорт 1013.3 1008.6
12 18.08 ЮВ 1 н/о н/о +24.8 +7.8 34 +25 +25 комфорт 1012.3 1007.7
15 18.08 ЮВ 1 н/о н/о +24.0 +8.5 37 +25 +25 комфорт 1011.9 1007.2
18 18.08 штиль 0 н/о н/о +17.9 +12.3 70 +18 +18 1012.0 1007.3 +25.3
21 18.08 ЮВ 1 н/о н/о +13.8 +11.8 88 +14 +14 1011.5 1006.7
00 19.08 ЮВ 2 н/о н/о +13.9 +12.2 89 +13 +13 1011.4 1006.6
03 19.08 ЮВ 2 н/о н/о +13.8 +11.9 88 +13 +13 1010.6 1005.8 +13.5
06 19.08 ЮВ 4 н/о н/о +17.2 +12.1 72 +17 +17 1009.3 1004.5 +13.5

 

Местоположение метеостанции Сланцы (Ленинградская область, Россия): широта 59.12 долгота 28.08 высота над уровнем моря 50 м.

В архиве по умолчанию представлена погода в Сланцах за последнюю неделю. Архивные данные за месяц целиком и за предыдущие месяцы, начиная с января 2011 года, Вы можете получить, выбрав интересующий диапазон дат из раскрывающегося списка и нажав кнопку "Ввод!".


*Определитесь, кто Вы:
робот инопланетянин человек

Внимание! Время в таблицах - всемирное. Для получения местного времени необходимо прибавить поправку, которая равна 3 ч.

Смотрите также архив погоды в соседних городах и на ближайших метеорологических станциях:

Погода в Нарве (Эстония) (28 км)
Погода в Кингисеппе (Ленинградская область, Россия) (41 км)
Погода в Гдове (Псковская область, Россия) (46 км)
Погода в Йохви (Эстония) (46 км)
Погода в Тиирикое (Эстония) (70 км)
Погода в Волосово (Ленинградская область, Россия) (88 км)
Погода в Кунде (Эстония) (99 км)
Погода в Сосновом Бору (Ленинградская область, Россия) (99 км)
Погода в Йыгеве (Эстония) (104 км)
Погода в Вяйке-Маарье (Эстония) (106 км)

Пояснения к столбцам:

Ветер - указаны скорость ветра в м/с - средняя за 10 мин, порывы в срок и между сроками (в фигурных скобках) и направление, откуда дует ветер: С - северный, СВ - северо-восточный, В - восточный, ЮВ - юго-восточный, Ю - южный, ЮЗ - юго-западный, З - западный, СЗ - северо-западный.
Видимость - горизонтальная дальность видимости в метрах или километрах. При видимости от 1 до 10 км при отсутствии осадков обычно наблюдается дымка, при ухудшении видимости до 1 км и менее - туман. В сухую погоду видимость может ухудшаться дымом, пылью или мглою.
Явления - указаны атмосферные явления, наблюдавшиеся в срок или в последний час перед сроком; фигурными скобками обозначены явления, наблюдавшиеся между сроками (за 1-3 часа до срока); квадратными скобками обозначены град или гололедные отложения с указанием их диаметра в мм.
Облачность - указаны через наклонную черту общая и нижняя облачность в баллах и высота нижней границы облаков в метрах; квадратными скобками обозначены формы облаков: Ci - перистые, Cs - перисто-слоистые, Cc - перисто-кучевые, Ac - высококучевые, As - высокослоистые, Sc - слоисто-кучевые, Ns - слоисто-дождевые, Cu - кучевые, Cb - кучево-дождевые. Подробнее классификацию облаков см. в Атласе облаков (PDF).
T - Температура воздуха - температура, измеренная на высоте 2 м над землей.
Td - Температура точки росы - температура, при понижении до которой содержащийся в воздухе водяной пар достигнет насыщения.
f - Относительная влажность воздуха - влажноcть воздуха, измеренная на высоте 2 м над землей.
Te - Эффективная температура - температура, которую ощущает одетый по сезону человек в тени. Характеристика душности погоды. При расчете учитывается влияние влажности воздуха и скорости ветра на теплоощущения человека.
Tes - Эффективная температура на солнце - температура, которую ощущает человек, с поправкой на солнечный нагрев. Характеристика знойности погоды. Зависит от высоты солнца над горизонтом, облачности и скорости ветра. Ночью, в пасмурную погоду, а также при ветре 12 м/с и более поправка равна нулю.
P - Атмосферное давление - приведенное к уровню моря атмосферное давление.
Po - Атмосферное давление - измеренное на уровне метеостанции атмосферное давление.
Tmin - Минимальная температура - минимум температуры воздуха на высоте 2 м над землей.
Tmax - Максимальная температура - максимум температуры воздуха на высоте 2 м над землей.
R - Количество осадков - Количество выпавших осадков за период времени, мм. При наведении курсора мыши на число - период времени, за который выпало указанное количество осадков.
R24 - Количество осадков - Количество выпавших осадков за 24 часа, мм.
S - Снежный покров - Высота снежного покрова, см. При наведении курсора мыши на число - состояние снежного покрова и степень покрытия местности в баллах.